Regional Weather Roundup
Issued by NWS Cleveland, OH

Home | Current Version | Previous Version | Text Only | Print | Product List | Glossary Off
Versions: 1 2 3 4 5 6 7 8 9 10 11 12 13 14 15 16 17 18 19 20 21 22 23 24 25 26 27 28 29 30 31 32 33 34 35 36 37 38 39 40 41 42 43 44 45 46 47 48 49 50

114
ASUS41 KCLE 290702
RWRCLE
OHIO REGIONAL WEATHER ROUNDUP
NATIONAL WEATHER SERVICE CLEVELAND, OH
300 AM EDT THU SEP 29 2016

NOTE: "FAIR" INDICATES FEW OR NO CLOUDS BELOW 12,000 FEET WITH NO
SIGNIFICANT WEATHER AND/OR OBSTRUCTIONS TO VISIBILITY.

OHZ001>008-015>018-024>027-034-035-043-044-290800-
   NORTHWEST OHIO

CITY           SKY/WX    TMP DP  RH WIND       PRES   REMARKS
DEFIANCE       CLOUDY    57  53  86 NE9       29.98S
FINDLAY        CLOUDY    57  53  86 NE5       29.97R
TOLEDO EXPRESS CLOUDY    55  55 100 CALM      29.98F
TOLEDO EXEC    MOCLDY    57  55  93 N5        29.99S
LIMA           CLOUDY    54  54 100 E3        29.97R
$$

OHZ009>014-019>023-028>033-038-089-290800-
   NORTHEAST OHIO

CITY           SKY/WX    TMP DP  RH WIND       PRES   REMARKS
CLE-HOPKINS    CLOUDY    59  54  83 CALM      30.00F
CLE-LAKEFRONT  CLOUDY    61  58  90 E5        29.98S
CUY CO. ARPT   NOT AVBL
LORAIN-ELYRIA  CLOUDY    55  53  93 E5        29.98S
ASHTABULA      CLOUDY    61  58  90 E8        30.03S
AKRON-CANTON   CLOUDY    56  53  90 E6        29.99F
WOOSTER        CLOUDY    54  53  97 CALM      29.99F
MANSFIELD      CLOUDY    54  53  97 S3        29.99R
YOUNGSTOWN     LGT RAIN  63  58  83 E9        30.00F
$$

OHZ042-051>053-060>062-070>072-077>081-290800-
  SOUTHWEST OHIO

CITY           SKY/WX    TMP DP  RH WIND       PRES   REMARKS
CINC-COVINGTON FOG       51  51 100 W6        29.96S VSB 1/2
CINC-LUNKEN    MOCLDY    53  53 100 NE3       29.98R
HAMILTON       CLOUDY    51  50  96 CALM      29.98R FOG
DAYTON         FOG       52  51  97 CALM      29.97R VSB 1/2
WRIGHT-PAT AFB NOT AVBL
DAYTON GENERAL CLOUDY    52  51  97 CALM      29.96R FOG
WILMINGTON     FOG       52  52 100 SE3       29.97R VSB 1/4
$$

OHZ036-037-039>041-045>050-054>059-063>069-073>076-082>088-290800-
  CENTRAL AND SOUTHEAST OHIO

CITY           SKY/WX    TMP DP  RH WIND       PRES   REMARKS
COLUMBUS       CLOUDY    57  57 100 SE7       29.96S
OSU AIRPORT    CLOUDY    57  56  96 SE5       29.97R
BOLTON FIELD   NOT AVBL
RICKENBACK AFB CLOUDY    55  55 100 CALM      29.97S
NEWARK         CLOUDY    56  54  93 SE7       29.98S
MARION         CLOUDY    56  53  90 E6        29.98R
LANCASTER      CLOUDY    57  56  96 SE6       29.98R
ZANESVILLE     CLOUDY    56  54  93 S7        29.99F
NEW PHILLY     CLOUDY    57  56  96 E3        29.99F
$$




USA.gov is the U.S. government's official web portal to all federal, state and local government web resources and services.